This is the latest recevied weather packets stored in our database for station/object KB2AHZ. If no packets are shown the sender has not sent any weather packets the latest 10 day(s).
| Time | Temp. | Humidity | Pressure | Rain* | Wind** | Luminosity | Snow |
|---|---|---|---|---|---|---|---|
| 1777316702 | 20.56° C | 45% | 1023.1 hPa | 0 mm | - | 771 W/m² | - |
| 1777316397 | 20° C | 43% | 1023.2 hPa | 0 mm | - | 763 W/m² | - |
| 1777316095 | 20° C | 44% | 1023.3 hPa | 0 mm | - | 760 W/m² | - |
| 1777315793 | 20.56° C | 41% | 1023.4 hPa | 0 mm | - | 834 W/m² | - |
| 1777315491 | 20.56° C | 45% | 1023.3 hPa | 0 mm | - | 849 W/m² | - |
| 1777315189 | 20° C | 45% | 1023.6 hPa | 0 mm | - | 854 W/m² | - |
| 1777314885 | 20° C | 45% | 1023.9 hPa | 0 mm | - | 864 W/m² | - |
| 1777314581 | 19.44° C | 45% | 1023.9 hPa | 0 mm | - | 873 W/m² | - |
| 1777314278 | 19.44° C | 44% | 1024.2 hPa | 0 mm | - | 883 W/m² | - |
| 1777313975 | 19.44° C | 44% | 1023.9 hPa | 0 mm | - | 881 W/m² | - |
| 1777313672 | 20° C | 44% | 1024 hPa | 0 mm | - | 890 W/m² | - |
| 1777313371 | 20° C | 46% | 1024.1 hPa | 0 mm | - | 900 W/m² | - |
| 1777313067 | 19.44° C | 46% | 1024.2 hPa | 0 mm | - | 908 W/m² | - |
| 1777312763 | 20° C | 44% | 1024.1 hPa | 0 mm | - | 913 W/m² | - |
| 1777312460 | 19.44° C | 46% | 1024 hPa | 0 mm | - | 915 W/m² | - |
| 1777312157 | 19.44° C | 46% | 1023.8 hPa | 0 mm | - | 920 W/m² | - |
| 1777311855 | 20° C | 47% | 1024.1 hPa | 0 mm | - | 924 W/m² | - |
| 1777311551 | 19.44° C | 49% | 1024 hPa | 0 mm | - | 927 W/m² | - |
| 1777311249 | 18.89° C | 48% | 1024.3 hPa | 0 mm | - | 931 W/m² | - |
| 1777310946 | 18.89° C | 49% | 1024.3 hPa | 0 mm | - | 937 W/m² | - |
| 1777310644 | 18.89° C | 50% | 1024.2 hPa | 0 mm | - | 937 W/m² | - |
| 1777310341 | 18.89° C | 51% | 1024.1 hPa | 0 mm | - | 938 W/m² | - |
| 1777310038 | 18.33° C | 49% | 1024.3 hPa | 0 mm | - | 939 W/m² | - |
| 1777309736 | 18.89° C | 50% | 1024.2 hPa | 0 mm | - | 938 W/m² | - |
| 1777309433 | 18.33° C | 50% | 1024.4 hPa | 0 mm | - | 939 W/m² | - |
* Rain latest hour (hover to see other rain measurements)
** Current wind speed in m/s (hover to see current wind gust speed)